Vorticity
14 14 15 14 15 13 11 12 10 12 12 13 14 16 19 21 24 25 21 14 15 15 11 11 11 11 10 5 11 12 12 14 12 9 8 7 8 9 11 9 12 13 11 10
13 13 13 12 12 13 12 11 10 11 10 10 12 10 13 15 16 17 19 23 24 19 18 23 18 10 12 13 7 6 12 15 11 14 14 12 11 9 9 11 14 13 12 12
12 12 13 14 12 12 12 9 9 9 8 7 10 9 9 8 10 13 14 17 18 29 26 -3 18 22 16 12 14 16 8 7 8 17 15 12 11 8 11 13 13 12 12 13
9 11 13 14 13 11 10 11 9 9 9 8 8 8 8 5 9 7 8 13 21 20 22 22 8 6 12 18 15 12 16 16 10 12 9 6 14 16 13 9 7 10 11 11
10 9 12 14 14 12 9 11 11 10 11 10 9 8 10 6 10 10 7 9 7 16 40 11 20 11 10 6 4 12 16 13 14 15 13 13 18 9 3 7 12 14 12 10
10 9 10 9 10 12 13 11 7 10 11 10 9 8 13 10 10 9 10 10 8 7 8 28 38 13 10 13 5 2 0 8 15 12 15 13 11 11 16 20 14 8 10 11
8 11 7 9 7 12 9 11 12 11 10 12 10 9 9 10 9 8 11 11 11 13 12 7 9 32 41 8 12 8 7 10 4 2 4 6 10 13 12 12 14 16 15 13
10 13 7 9 7 7 9 11 9 13 11 10 10 11 9 9 10 10 9 10 12 14 15 14 14 9 9 26 58 11 3 10 9 13 8 4 -3 1 4 6 9 7 7 8
8 10 11 9 6 7 6 6 11 9 10 10 10 10 10 9 9 10 11 10 9 8 9 12 16 16 15 10 9 18 57 41 -1 0 8 3 13 4 2 2 3 1 2 8
12 7 4 3 2 4 9 8 9 10 10 9 11 10 10 10 9 10 11 11 10 10 9 9 13 11 16 14 17 8 10 17 44 53 27 9 1 9 8 15 12 8 7 10
6 5 6 6 8 8 12 12 12 12 12 13 13 11 10 11 12 13 11 10 10 10 9 9 8 9 13 8 18 18 9 8 9 14 27 43 39 26 18 7 6 11 13 11
11 13 12 13 13 13 13 13 12 11 11 10 12 13 14 14 14 12 10 10 10 9 8 9 10 13 16 13 11 17 20 10 7 8 9 11 16 31 38 29 19 16 8 7
10 11 13 16 18 18 17 17 16 15 15 14 13 14 12 10 10 9 9 8 8 7 8 9 12 16 21 20 20 12 16 22 10 6 7 9 12 11 12 15 29 37 17 13
14 13 11 9 9 9 9 9 9 9 9 9 9 9 8 9 9 8 8 7 8 11 16 19 19 17 16 19 14 21 15 17 21 9 6 6 10 11 9 8 15 17 24 36
9 10 10 11 11 12 12 12 12 11 11 11 11 11 11 11 12 13 14 16 17 18 18 16 15 14 14 16 18 17 19 18 17 20 8 5 9 10 5 13 16 6 24 26
11 11 12 12 13 13 13 14 14 14 15 15 15 15 15 16 16 16 16 16 16 16 15 14 13 14 13 14 18 19 20 17 19 19 17 8 7 13 13 13 14 25 36 43
10 10 11 12 12 12 12 13 13 13 13 14 14 14 14 15 14 15 15 14 15 15 14 14 13 12 12 11 14 17 18 20 23 19 17 9 7 14 10 13 10 17 30 25
10 10 11 12 12 12 12 12 13 13 13 13 13 14 14 15 15 15 15 15 15 14 14 14 12 11 11 11 11 14 14 18 25 21 17 11 8 9 12 9 14 14 23 27
10 10 11 11 12 12 12 12 12 12 13 13 13 13 13 14 15 15 15 15 15 14 13 11 10 10 12 12 11 10 13 16 19 24 17 10 7 7 10 10 10 16 18 15
10 11 11 11 11 11 12 12 12 12 11 12 13 13 13 13 14 14 15 16 15 12 12 12 12 13 13 13 14 12 13 16 13 25 20 12 9 6 5 11 6 17 18 15
10 11 12 12 12 11 11 12 12 12 12 12 13 13 14 14 14 14 15 15 16 16 15 15 13 13 14 14 14 15 16 17 23 16 23 16 9 11 -1 6 11 9 24 18
11 12 12 13 13 12 12 12 12 12 12 13 13 13 14 14 14 14 14 14 14 15 15 14 13 14 13 14 14 17 22 25 22 16 20 18 13 9 7 3 7 11 21 27
12 13 13 13 13 13 13 13 13 12 13 13 13 13 13 15 15 14 15 15 14 13 15 14 15 15 12 12 15 14 24 29 24 21 18 19 14 11 8 7 6 12 19 26
15 15 15 14 14 14 14 13 14 14 14 14 14 14 15 16 16 15 15 15 14 13 14 14 15 16 12 14 15 12 20 30 24 22 17 18 14 12 8 7 6 13 17 21
16 17 17 17 17 17 17 16 16 16 16 16 16 16 16 15 15 15 14 15 14 13 13 13 13 14 10 16 16 13 13 28 25 22 17 19 13 14 9 7 6 12 15 16
20 21 21 20 19 20 18 18 19 19 18 18 17 17 16 16 16 16 15 14 14 13 13 12 13 16 13 12 17 13 10 22 27 22 18 18 14 13 12 7 7 9 13 14
22 19 18 19 18 18 17 17 17 17 16 17 18 17 17 19 17 17 15 15 15 15 14 14 12 12 15 10 19 8 13 26 26 23 20 15 17 11 14 10 7 7 9 12
Height
5448 5448 5449 5449 5450 5451 5452 5454 5455 5456 5458 5457 5458 5459 5459 5459 5460 5462 5465 5467 5470 5475 5479 5482 5485 5488 5492 5496 5500 5504 5507 5511 5515 5521 5526 5532 5538 5543 5549 5554 5559 5564 5569 5575
5444 5444 5444 5444 5445 5445 5446 5447 5447 5448 5449 5449 5449 5449 5449 5448 5448 5448 5450 5452 5454 5459 5462 5465 5469 5473 5476 5480 5484 5488 5492 5496 5500 5505 5511 5516 5522 5527 5533 5538 5543 5548 5553 5558
5441 5441 5440 5441 5440 5440 5441 5441 5441 5442 5442 5441 5441 5441 5440 5439 5439 5439 5439 5440 5441 5443 5447 5451 5454 5457 5461 5465 5468 5472 5476 5480 5484 5489 5494 5499 5505 5510 5515 5520 5526 5530 5536 5541
5437 5436 5436 5436 5435 5435 5436 5436 5435 5435 5434 5434 5434 5433 5430 5432 5431 5428 5429 5429 5429 5431 5434 5437 5440 5444 5447 5450 5454 5457 5461 5464 5468 5473 5478 5483 5488 5493 5498 5503 5508 5514 5519 5524
5432 5432 5432 5431 5430 5430 5429 5430 5428 5428 5427 5426 5426 5425 5421 5422 5421 5421 5420 5419 5420 5419 5420 5422 5425 5429 5433 5437 5440 5443 5447 5449 5452 5457 5462 5467 5471 5476 5481 5487 5492 5496 5502 5507
5427 5427 5426 5427 5425 5424 5423 5424 5422 5421 5420 5418 5417 5417 5415 5413 5411 5411 5411 5410 5409 5409 5409 5408 5410 5412 5417 5421 5425 5428 5431 5435 5438 5443 5446 5450 5454 5459 5465 5470 5475 5480 5485 5490
5422 5422 5422 5422 5420 5419 5419 5419 5416 5414 5413 5411 5409 5408 5407 5405 5402 5401 5400 5399 5398 5398 5398 5397 5397 5397 5401 5403 5406 5410 5414 5419 5422 5427 5431 5435 5439 5444 5449 5454 5459 5465 5470 5475
5418 5418 5419 5417 5416 5414 5412 5409 5407 5406 5404 5403 5401 5399 5397 5396 5395 5393 5391 5389 5387 5387 5386 5385 5385 5385 5386 5387 5389 5391 5395 5400 5404 5408 5414 5417 5423 5428 5433 5438 5443 5449 5454 5459
5415 5413 5411 5411 5409 5407 5405 5403 5400 5398 5395 5393 5392 5390 5388 5386 5384 5383 5381 5379 5377 5376 5375 5374 5372 5372 5373 5374 5374 5375 5377 5381 5384 5389 5393 5400 5403 5409 5415 5421 5427 5433 5438 5443
5408 5407 5404 5403 5402 5399 5397 5395 5392 5390 5387 5385 5382 5380 5378 5376 5373 5372 5369 5368 5367 5365 5364 5362 5360 5359 5358 5359 5359 5361 5363 5364 5365 5369 5373 5379 5386 5389 5395 5402 5407 5413 5419 5424
5405 5402 5400 5396 5393 5390 5387 5384 5381 5379 5376 5374 5372 5369 5367 5364 5362 5360 5358 5356 5355 5354 5352 5350 5349 5346 5345 5345 5346 5347 5349 5351 5352 5354 5356 5359 5365 5372 5375 5382 5387 5393 5399 5404
5399 5396 5392 5389 5384 5380 5377 5374 5370 5368 5365 5361 5360 5357 5355 5352 5350 5349 5346 5344 5343 5341 5339 5337 5335 5333 5331 5331 5331 5332 5334 5336 5338 5341 5343 5346 5349 5354 5357 5360 5366 5372 5378 5386
5393 5388 5384 5380 5376 5372 5368 5364 5361 5357 5354 5351 5347 5346 5344 5342 5339 5336 5334 5332 5329 5327 5325 5322 5319 5317 5316 5315 5316 5317 5319 5321 5324 5327 5330 5333 5336 5340 5343 5344 5346 5351 5357 5364
5385 5381 5378 5372 5368 5364 5360 5356 5351 5348 5345 5341 5338 5335 5332 5330 5326 5324 5321 5318 5315 5312 5310 5308 5305 5303 5302 5301 5301 5302 5304 5306 5309 5313 5316 5320 5323 5326 5328 5331 5333 5336 5337 5342
5379 5374 5370 5365 5360 5355 5351 5346 5342 5337 5334 5329 5326 5323 5319 5316 5313 5310 5307 5304 5301 5298 5296 5293 5292 5290 5289 5288 5288 5288 5290 5292 5295 5298 5302 5306 5309 5311 5314 5317 5318 5320 5321 5323
5373 5368 5362 5357 5351 5346 5341 5336 5331 5326 5322 5318 5314 5309 5306 5302 5298 5295 5292 5289 5287 5284 5282 5280 5279 5278 5277 5276 5276 5275 5276 5278 5280 5283 5287 5291 5295 5297 5300 5302 5304 5304 5302 5305
5366 5361 5355 5348 5343 5337 5331 5326 5321 5316 5311 5306 5302 5297 5293 5289 5285 5281 5278 5276 5274 5272 5271 5269 5267 5266 5265 5265 5264 5264 5264 5265 5266 5270 5273 5278 5282 5284 5287 5289 5290 5291 5291 5293
5358 5352 5346 5340 5334 5328 5322 5316 5310 5305 5300 5296 5291 5286 5281 5277 5273 5269 5266 5263 5261 5260 5259 5257 5256 5255 5254 5253 5253 5253 5253 5253 5254 5256 5260 5265 5269 5272 5275 5277 5280 5282 5283 5286
5351 5345 5338 5331 5325 5319 5312 5306 5300 5295 5290 5284 5279 5274 5270 5266 5262 5258 5255 5252 5250 5247 5246 5245 5244 5243 5242 5242 5241 5241 5241 5242 5243 5244 5248 5253 5258 5261 5265 5267 5270 5272 5275 5278
5343 5336 5328 5321 5314 5308 5302 5295 5290 5284 5278 5273 5268 5263 5258 5254 5250 5246 5243 5240 5239 5236 5235 5233 5232 5230 5229 5229 5229 5229 5229 5229 5231 5232 5236 5241 5246 5250 5254 5257 5260 5262 5265 5269
5333 5325 5318 5310 5303 5296 5290 5284 5278 5272 5266 5261 5256 5251 5246 5242 5238 5235 5231 5228 5226 5224 5223 5222 5220 5218 5217 5216 5216 5215 5215 5216 5218 5220 5224 5228 5233 5238 5244 5247 5250 5252 5255 5259
5322 5314 5306 5298 5291 5283 5277 5271 5265 5259 5253 5248 5243 5238 5234 5229 5226 5222 5219 5217 5214 5212 5211 5210 5208 5206 5204 5203 5203 5202 5202 5202 5204 5207 5212 5216 5222 5227 5233 5237 5240 5242 5244 5248
5311 5302 5293 5285 5277 5269 5262 5256 5250 5245 5239 5234 5229 5224 5220 5216 5213 5210 5207 5205 5203 5201 5200 5198 5197 5195 5194 5191 5191 5190 5189 5189 5191 5195 5200 5205 5211 5217 5222 5227 5230 5233 5234 5238
5298 5288 5279 5270 5262 5254 5248 5240 5235 5229 5224 5219 5215 5211 5207 5203 5199 5197 5195 5193 5191 5189 5188 5187 5186 5185 5184 5181 5181 5180 5179 5178 5180 5184 5189 5194 5200 5206 5212 5217 5221 5224 5227 5230
5283 5273 5264 5254 5246 5238 5231 5225 5219 5214 5209 5204 5200 5196 5193 5190 5189 5185 5183 5181 5180 5179 5177 5176 5176 5174 5173 5172 5171 5170 5170 5169 5171 5174 5179 5185 5191 5196 5202 5208 5213 5217 5220 5223
5268 5258 5248 5239 5231 5224 5216 5210 5204 5199 5194 5190 5186 5182 5180 5177 5175 5174 5172 5170 5169 5168 5167 5166 5166 5165 5163 5162 5161 5161 5161 5160 5162 5165 5170 5175 5182 5188 5194 5199 5205 5209 5213 5217
5253 5242 5233 5225 5216 5209 5201 5195 5189 5185 5180 5177 5174 5169 5167 5165 5164 5162 5161 5160 5159 5158 5157 5156 5156 5155 5154 5152 5152 5151 5151 5151 5153 5156 5161 5166 5173 5179 5185 5191 5197 5202 5207 5211